Location: Greene
(44.1583°N, 70.1456°W)
Time: 16:02:24
(UTC-05:00)

Tiangong 2 - Visible Passes

Search period start: 20 November 2017 00:00
Search period end: 30 November 2017 00:00
Orbit: 386 x 391 km, 42.8° (Epoch: 20 November)

Date Brightness Start Highest point End Pass type
(mag) Time Alt. Az. Time Alt. Az. Time Alt. Az.
25 Nov 4.5 05:45:43 10° SSE 05:46:33 11° SE 05:47:22 10° SE visible
27 Nov 3.8 05:24:24 10° SSW 05:26:41 18° SSE 05:28:57 10° ESE visible
28 Nov 4.1 04:28:09 11° SSE 04:28:41 11° SSE 04:29:48 10° SE visible
28 Nov 2.4 06:01:57 10° SW 06:04:58 40° SSE 06:08:00 10° E visible
29 Nov 2.9 05:05:32 21° SSW 05:06:50 28° SSE 05:09:39 10° E visible
